Temp
-15 -15 -15 -15 -15 -16 -16 -16 -16 -16 -17 -18 -18 -18 -17 -18 -17 -17 -17 -17 -17 -17 -17 -17 -17 -16 -16 -15 -15 -14 -14 -14 -13 -13 -13 -12 -12 -12 -11 -11 -11 -11 -11 -11 -11 -10 -10
-15 -15 -15 -16 -15 -16 -16 -16 -16 -16 -17 -17 -18 -18 -18 -17 -17 -18 -17 -17 -17 -17 -17 -17 -17 -17 -16 -15 -14 -15 -15 -14 -14 -13 -13 -13 -12 -12 -11 -11 -11 -11 -11 -11 -11 -11 -11
-15 -15 -16 -16 -16 -16 -16 -16 -16 -16 -16 -16 -16 -17 -18 -18 -17 -17 -18 -18 -17 -17 -17 -17 -17 -17 -17 -16 -15 -16 -15 -15 -14 -14 -14 -13 -13 -13 -12 -12 -11 -11 -11 -11 -11 -11 -10
-15 -16 -16 -16 -16 -16 -16 -16 -17 -17 -18 -17 -16 -15 -15 -17 -18 -18 -17 -18 -17 -17 -17 -17 -17 -17 -17 -16 -16 -16 -15 -15 -15 -15 -15 -14 -13 -13 -13 -12 -12 -13 -11 -11 -12 -11 -11
-15 -15 -16 -16 -16 -16 -16 -17 -18 -18 -17 -19 -20 -20 -20 -19 -19 -18 -18 -18 -18 -18 -18 -17 -17 -17 -17 -17 -16 -16 -16 -16 -15 -15 -15 -15 -14 -13 -13 -13 -13 -12 -12 -12 -12 -12 -11
-15 -16 -16 -16 -16 -16 -17 -17 -18 -18 -21 -22 -22 -22 -22 -22 -21 -20 -18 -18 -18 -18 -18 -18 -18 -17 -17 -17 -17 -17 -17 -16 -16 -16 -15 -15 -14 -13 -14 -14 -13 -13 -13 -12 -12 -11 -12
-16 -16 -16 -17 -16 -17 -17 -18 -18 -21 -23 -23 -24 -24 -24 -24 -23 -23 -20 -18 -19 -19 -18 -18 -17 -18 -17 -17 -17 -17 -17 -16 -16 -16 -16 -15 -14 -14 -16 -14 -14 -13 -13 -13 -13 -12 -12
-16 -16 -16 -16 -16 -16 -17 -18 -20 -23 -24 -25 -25 -26 -26 -26 -25 -24 -23 -20 -20 -19 -18 -19 -18 -18 -18 -18 -18 -17 -17 -16 -16 -16 -16 -15 -15 -16 -15 -15 -15 -14 -14 -14 -14 -13 -12
-16 -16 -16 -17 -16 -17 -18 -19 -22 -23 -25 -26 -27 -27 -27 -27 -26 -25 -24 -23 -20 -19 -20 -19 -18 -18 -18 -18 -18 -17 -17 -17 -17 -17 -16 -16 -16 -16 -15 -15 -15 -15 -14 -14 -14 -13 -13
-16 -17 -17 -17 -16 -17 -18 -21 -22 -24 -26 -28 -28 -28 -27 -27 -26 -25 -24 -23 -22 -20 -19 -19 -19 -18 -18 -18 -18 -17 -17 -17 -17 -16 -16 -16 -16 -16 -16 -15 -15 -15 -14 -14 -14 -14 -14
-16 -17 -17 -17 -16 -17 -19 -22 -22 -24 -27 -28 -28 -28 -27 -27 -27 -26 -25 -24 -22 -21 -20 -19 -19 -18 -18 -18 -18 -17 -17 -17 -17 -17 -16 -16 -16 -16 -16 -16 -15 -15 -15 -15 -15 -14 -14
-17 -17 -17 -17 -16 -18 -21 -22 -23 -25 -28 -28 -27 -27 -27 -27 -27 -26 -25 -23 -22 -21 -20 -19 -19 -18 -18 -18 -18 -17 -17 -17 -17 -16 -16 -16 -16 -16 -16 -15 -15 -15 -15 -15 -14 -14 -14
-17 -17 -17 -17 -16 -19 -23 -25 -25 -27 -28 -27 -27 -27 -27 -26 -26 -25 -24 -22 -22 -20 -20 -19 -19 -18 -18 -18 -18 -17 -17 -17 -17 -16 -16 -16 -16 -16 -15 -15 -15 -15 -15 -14 -14 -14 -13
-17 -17 -17 -16 -17 -19 -23 -25 -26 -26 -26 -27 -27 -27 -27 -26 -25 -25 -23 -22 -21 -20 -20 -19 -18 -19 -19 -18 -18 -17 -17 -17 -17 -16 -16 -16 -16 -16 -15 -15 -15 -15 -15 -15 -15 -14 -13
-17 -17 -17 -16 -17 -19 -23 -24 -25 -25 -26 -26 -26 -26 -26 -26 -26 -24 -24 -22 -21 -21 -20 -19 -18 -19 -18 -18 -17 -17 -17 -17 -16 -16 -16 -16 -15 -15 -15 -15 -15 -15 -15 -15 -15 -15 -14
-16 -17 -17 -16 -17 -19 -22 -23 -24 -24 -25 -26 -26 -26 -26 -26 -25 -22 -21 -22 -21 -21 -20 -19 -19 -19 -18 -18 -17 -17 -17 -17 -17 -17 -16 -16 -15 -15 -15 -16 -15 -15 -15 -15 -15 -15 -14
-16 -17 -17 -16 -16 -19 -22 -23 -23 -24 -25 -25 -25 -26 -26 -24 -23 -21 -22 -22 -21 -20 -19 -19 -19 -19 -18 -17 -17 -17 -17 -17 -17 -16 -16 -16 -16 -16 -16 -16 -15 -15 -16 -15 -15 -15 -15
-17 -17 -17 -16 -16 -19 -22 -22 -23 -24 -25 -25 -25 -25 -23 -22 -22 -22 -22 -21 -20 -20 -19 -19 -19 -19 -19 -18 -18 -17 -17 -17 -17 -16 -16 -16 -16 -16 -16 -16 -16 -15 -15 -15 -15 -16 -15
-17 -17 -17 -16 -16 -18 -21 -22 -22 -23 -24 -24 -24 -24 -22 -23 -23 -22 -22 -21 -19 -20 -20 -19 -19 -19 -18 -18 -18 -17 -17 -17 -17 -17 -16 -16 -16 -16 -16 -16 -16 -15 -15 -15 -15 -15 -15
-17 -17 -17 -16 -17 -18 -21 -21 -21 -23 -23 -24 -23 -22 -22 -22 -22 -21 -21 -20 -20 -20 -19 -19 -19 -19 -18 -18 -18 -18 -18 -17 -17 -17 -16 -16 -16 -17 -16 -16 -15 -15 -15 -15 -15 -15 -15
-17 -17 -17 -16 -17 -17 -20 -20 -21 -22 -22 -22 -22 -22 -22 -22 -22 -21 -21 -20 -20 -20 -19 -19 -19 -19 -19 -19 -18 -18 -18 -17 -17 -16 -16 -16 -17 -16 -16 -16 -15 -15 -15 -15 -15 -15 -15
-17 -17 -17 -17 -17 -18 -19 -20 -20 -21 -21 -21 -21 -20 -20 -20 -20 -20 -20 -20 -20 -20 -19 -19 -19 -19 -19 -19 -18 -18 -18 -17 -17 -17 -16 -17 -17 -17 -16 -15 -15 -15 -15 -16 -15 -15 -15
-16 -17 -17 -17 -17 -18 -19 -20 -20 -20 -20 -20 -20 -20 -20 -20 -20 -20 -20 -20 -20 -20 -19 -19 -19 -19 -19 -19 -18 -18 -18 -17 -17 -17 -17 -17 -17 -17 -16 -15 -15 -15 -15 -15 -15 -15 -15
-16 -17 -17 -17 -17 -18 -18 -19 -20 -20 -20 -20 -20 -20 -20 -20 -19 -19 -20 -19 -19 -19 -19 -19 -19 -18 -18 -18 -18 -18 -18 -17 -17 -17 -17 -17 -17 -16 -16 -16 -16 -16 -15 -15 -15 -15 -15
-16 -17 -17 -17 -17 -17 -18 -18 -19 -20 -20 -19 -20 -20 -20 -20 -20 -19 -19 -19 -19 -19 -18 -19 -18 -18 -18 -18 -18 -18 -18 -17 -17 -17 -17 -17 -16 -16 -16 -16 -16 -16 -16 -15 -15 -15 -15
-16 -17 -17 -17 -17 -17 -18 -18 -19 -19 -20 -19 -19 -19 -19 -19 -19 -19 -19 -19 -19 -19 -19 -19 -18 -18 -19 -18 -18 -18 -18 -18 -17 -17 -17 -17 -17 -16 -16 -16 -16 -16 -16 -16 -16 -16 -15
-16 -17 -17 -17 -17 -17 -18 -18 -18 -18 -19 -19 -19 -19 -19 -19 -19 -19 -19 -19 -19 -19 -19 -19 -19 -19 -19 -19 -18 -18 -18 -18 -18 -17 -17 -17 -17 -16 -16 -16 -16 -16 -16 -16 -16 -16 -16
-16 -17 -17 -17 -17 -17 -18 -18 -19 -19 -18 -19 -19 -19 -19 -19 -19 -19 -19 -19 -19 -20 -20 -20 -20 -20 -20 -19 -19 -18 -18 -18 -17 -17 -17 -17 -16 -16 -16 -16 -16 -16 -16 -16 -16 -16 -16
-16 -16 -17 -17 -17 -17 -17 -18 -18 -19 -19 -19 -19 -19 -19 -19 -19 -19 -19 -20 -20 -21 -21 -20 -20 -20 -20 -19 -19 -18 -18 -18 -17 -17 -16 -16 -16 -16 -16 -16 -16 -16 -16 -16 -16 -16 -16
Height
5715 5707 5698 5690 5683 5676 5669 5662 5656 5648 5641 5637 5634 5631 5629 5628 5629 5630 5632 5634 5635 5636 5641 5644 5647 5651 5656 5661 5667 5673 5680 5686 5692 5698 5704 5709 5713 5719 5724 5728 5733 5737 5741 5746 5749 5752 5758
5709 5701 5693 5685 5677 5669 5661 5653 5645 5638 5632 5624 5619 5616 5614 5613 5613 5615 5618 5621 5625 5628 5630 5633 5639 5643 5647 5655 5660 5665 5672 5677 5683 5689 5695 5701 5706 5710 5714 5719 5724 5728 5734 5739 5741 5746 5750
5702 5695 5686 5677 5668 5658 5648 5638 5630 5622 5615 5608 5602 5597 5594 5593 5595 5597 5603 5608 5613 5617 5621 5624 5629 5634 5641 5646 5652 5658 5664 5669 5675 5680 5687 5692 5698 5703 5708 5712 5717 5722 5728 5731 5734 5738 5741
5696 5686 5677 5666 5656 5645 5634 5622 5611 5599 5590 5582 5572 5564 5560 5563 5568 5577 5582 5591 5599 5605 5609 5615 5619 5625 5633 5639 5645 5650 5657 5663 5668 5673 5679 5683 5690 5695 5699 5705 5711 5715 5718 5723 5727 5729 5732
5689 5679 5668 5656 5644 5630 5617 5603 5588 5576 5559 5543 5531 5526 5524 5523 5531 5546 5561 5571 5583 5592 5599 5605 5612 5618 5625 5633 5639 5644 5650 5656 5661 5666 5671 5675 5682 5687 5693 5698 5703 5707 5711 5714 5717 5721 5725
5683 5670 5658 5646 5631 5615 5600 5584 5566 5546 5529 5518 5509 5503 5502 5502 5504 5515 5533 5553 5566 5579 5587 5595 5602 5611 5621 5628 5633 5638 5643 5649 5655 5661 5665 5669 5675 5682 5687 5692 5698 5700 5702 5705 5710 5713 5718
5676 5661 5648 5635 5619 5602 5585 5565 5543 5523 5511 5500 5492 5488 5486 5486 5489 5496 5512 5533 5550 5565 5575 5587 5598 5604 5613 5622 5626 5633 5638 5643 5649 5654 5659 5663 5669 5677 5681 5685 5689 5692 5695 5699 5702 5706 5710
5668 5654 5640 5626 5609 5588 5567 5545 5524 5508 5496 5487 5482 5480 5478 5476 5478 5484 5495 5515 5536 5553 5566 5577 5588 5597 5607 5613 5621 5628 5634 5640 5645 5649 5653 5659 5665 5672 5675 5679 5685 5688 5691 5694 5696 5697 5701
5661 5646 5631 5615 5597 5574 5552 5531 5511 5495 5485 5480 5478 5477 5476 5474 5472 5478 5489 5506 5526 5546 5561 5572 5583 5591 5601 5608 5616 5623 5629 5635 5640 5644 5648 5654 5660 5665 5670 5675 5679 5682 5685 5688 5691 5691 5695
5655 5640 5625 5607 5587 5564 5540 5519 5501 5487 5480 5479 5479 5477 5476 5475 5477 5477 5487 5502 5524 5541 5557 5568 5576 5586 5596 5604 5613 5619 5624 5631 5635 5640 5644 5648 5655 5661 5666 5671 5675 5678 5680 5684 5686 5687 5689
5650 5635 5618 5600 5579 5555 5531 5513 5494 5483 5480 5481 5478 5477 5476 5474 5474 5476 5488 5502 5522 5537 5552 5565 5573 5583 5591 5601 5610 5615 5621 5627 5632 5636 5642 5648 5653 5658 5663 5668 5671 5675 5677 5679 5680 5681 5683
5645 5630 5614 5593 5572 5548 5525 5509 5493 5482 5482 5482 5481 5478 5475 5473 5473 5478 5487 5503 5516 5538 5549 5558 5568 5579 5589 5597 5606 5612 5619 5625 5629 5634 5639 5644 5650 5656 5661 5664 5667 5671 5673 5674 5674 5674 5676
5642 5626 5610 5590 5567 5543 5524 5508 5496 5488 5486 5484 5481 5476 5472 5469 5472 5480 5490 5504 5518 5533 5544 5558 5569 5578 5587 5596 5604 5610 5617 5623 5628 5633 5638 5642 5649 5654 5657 5660 5663 5665 5667 5667 5667 5667 5670
5639 5624 5608 5588 5566 5542 5526 5514 5505 5497 5491 5486 5481 5476 5471 5470 5476 5486 5497 5513 5524 5535 5546 5555 5567 5577 5585 5593 5601 5608 5615 5620 5625 5630 5636 5640 5646 5649 5653 5657 5659 5660 5661 5661 5658 5658 5659
5637 5623 5607 5587 5565 5544 5530 5520 5510 5502 5493 5486 5479 5477 5476 5477 5485 5493 5513 5525 5530 5539 5549 5561 5568 5575 5583 5592 5601 5607 5613 5619 5624 5630 5634 5638 5643 5647 5649 5652 5654 5656 5655 5653 5652 5651 5646
5637 5624 5607 5588 5567 5546 5533 5524 5514 5506 5497 5491 5487 5483 5483 5484 5493 5509 5519 5525 5533 5547 5555 5561 5569 5576 5584 5593 5600 5606 5612 5618 5623 5627 5631 5637 5640 5642 5646 5648 5648 5647 5649 5647 5644 5640 5636
5636 5623 5608 5591 5571 5551 5538 5529 5518 5507 5500 5494 5492 5489 5489 5494 5507 5521 5524 5531 5541 5550 5559 5565 5570 5579 5587 5594 5600 5605 5612 5617 5621 5626 5630 5633 5636 5640 5641 5641 5641 5642 5641 5640 5636 5633 5629
5636 5624 5609 5595 5576 5557 5545 5534 5522 5511 5502 5496 5495 5495 5497 5509 5520 5522 5530 5538 5547 5556 5562 5568 5574 5579 5584 5592 5599 5604 5610 5615 5619 5623 5627 5630 5633 5635 5635 5634 5634 5637 5635 5632 5627 5628 5620
5636 5625 5612 5599 5583 5564 5553 5541 5529 5517 5506 5499 5499 5503 5511 5520 5526 5533 5540 5547 5555 5561 5567 5571 5575 5581 5586 5592 5599 5604 5609 5613 5617 5621 5625 5628 5630 5630 5629 5631 5630 5631 5626 5624 5620 5618 5617
5636 5625 5614 5602 5589 5573 5561 5551 5538 5525 5516 5511 5514 5519 5527 5535 5539 5544 5550 5556 5562 5566 5571 5574 5578 5582 5587 5592 5598 5603 5607 5612 5616 5620 5623 5625 5627 5625 5627 5626 5627 5627 5624 5621 5616 5609 5603
5636 5626 5616 5606 5595 5581 5570 5562 5550 5539 5531 5528 5536 5540 5543 5545 5548 5553 5557 5562 5566 5571 5574 5577 5581 5584 5588 5593 5597 5602 5607 5611 5615 5618 5620 5622 5621 5623 5623 5622 5620 5619 5618 5615 5610 5608 5600
5636 5627 5618 5607 5599 5588 5578 5573 5566 5558 5553 5550 5555 5558 5559 5561 5561 5564 5566 5569 5572 5574 5578 5580 5583 5586 5589 5594 5600 5604 5607 5610 5613 5616 5617 5618 5620 5619 5619 5620 5618 5616 5614 5612 5609 5606 5600
5634 5627 5618 5609 5602 5593 5586 5582 5578 5573 5571 5568 5568 5569 5569 5570 5571 5572 5573 5575 5577 5579 5581 5583 5584 5587 5592 5597 5599 5603 5606 5609 5611 5613 5614 5615 5616 5616 5616 5617 5616 5617 5614 5611 5608 5603 5597
5632 5626 5618 5610 5604 5598 5591 5586 5584 5585 5582 5578 5575 5575 5577 5577 5577 5577 5579 5581 5582 5583 5584 5585 5586 5588 5592 5595 5599 5602 5605 5607 5609 5610 5611 5612 5614 5614 5614 5614 5615 5614 5612 5609 5606 5603 5597
5629 5623 5617 5612 5606 5601 5595 5591 5589 5586 5586 5585 5582 5582 5582 5582 5582 5583 5583 5583 5584 5584 5585 5586 5587 5588 5590 5593 5597 5600 5602 5605 5606 5608 5609 5611 5611 5613 5613 5613 5613 5612 5610 5608 5605 5603 5598
5625 5620 5615 5608 5605 5600 5596 5593 5590 5589 5587 5586 5586 5584 5584 5584 5584 5583 5583 5583 5583 5584 5584 5585 5586 5587 5588 5591 5594 5597 5600 5603 5604 5606 5607 5609 5610 5611 5612 5612 5612 5611 5608 5606 5605 5603 5598
5621 5617 5612 5607 5603 5598 5595 5591 5589 5586 5586 5585 5584 5583 5583 5582 5581 5581 5581 5581 5581 5582 5582 5583 5584 5586 5587 5589 5592 5595 5598 5600 5602 5604 5606 5607 5609 5610 5611 5611 5611 5610 5608 5605 5604 5605 5599
5615 5612 5609 5604 5600 5596 5591 5588 5585 5583 5582 5580 5580 5579 5578 5578 5578 5577 5577 5577 5578 5578 5579 5581 5583 5584 5586 5589 5591 5593 5595 5597 5600 5602 5603 5606 5608 5609 5609 5609 5610 5609 5607 5606 5604 5601 5598
5610 5606 5603 5599 5597 5593 5588 5583 5580 5578 5577 5576 5573 5573 5573 5572 5574 5574 5573 5573 5574 5576 5578 5579 5581 5583 5585 5587 5589 5590 5592 5594 5596 5599 5601 5604 5605 5607 5608 5608 5607 5607 5606 5604 5603 5600 5598
Wind_Speed
51 50 51 52 53 54 54 51 50 49 49 43 41 44 47 47 44 42 41 38 39 36 38 36 37 36 38 39 40 42 44 46 46 48 47 47 46 46 45 45 44 44 46 41 38 38 34
53 53 54 52 55 58 58 58 55 51 50 50 47 45 46 48 50 48 45 43 40 40 37 37 37 39 36 38 39 38 40 43 45 46 46 47 46 47 46 45 43 43 45 42 39 35 36
55 54 56 57 59 62 65 67 67 63 57 51 54 58 56 53 53 54 50 48 45 42 40 36 40 38 39 35 37 36 39 41 42 45 45 46 46 46 45 43 43 41 42 44 40 36 39
58 58 59 62 64 68 72 75 76 66 68 70 69 69 68 66 61 60 58 52 48 45 40 40 38 39 37 38 35 36 36 38 39 40 42 46 46 46 45 45 43 42 43 43 41 39 40
58 60 62 66 70 73 78 82 77 81 76 69 69 68 68 69 63 62 63 59 50 47 43 40 39 39 39 37 36 34 34 36 36 38 32 40 45 45 45 43 43 44 42 41 42 41 41
58 64 67 70 74 78 83 84 87 75 64 55 51 46 43 44 44 48 63 63 54 48 45 40 40 38 36 36 35 34 33 34 34 36 37 35 43 42 41 39 39 41 42 42 40 43 41
61 67 70 73 78 83 88 92 80 63 60 48 39 34 32 33 33 37 49 61 54 47 47 44 37 39 34 34 36 33 33 32 33 35 36 37 40 37 29 37 39 41 42 39 39 40 42
63 68 72 76 81 87 93 91 69 64 51 36 24 19 16 18 22 33 39 53 51 49 46 42 39 39 35 35 35 33 33 32 31 31 33 34 35 29 33 35 36 38 37 36 36 39 43
65 70 75 80 86 93 96 81 68 57 38 19 8 9 19 25 12 30 38 49 50 45 43 47 36 38 35 35 35 33 33 31 30 30 30 29 30 31 32 32 33 34 35 34 34 35 36
65 72 77 82 88 95 93 74 63 47 26 8 5 10 13 21 19 27 40 51 51 51 44 41 39 39 35 36 35 33 33 32 29 28 27 27 28 27 27 28 28 29 30 27 26 28 31
65 73 78 84 91 98 85 70 54 39 12 4 3 12 9 15 12 25 37 55 39 40 44 43 41 36 36 37 34 32 32 27 26 24 23 22 22 24 24 22 23 22 22 23 26 29 31
65 73 78 86 93 96 75 66 46 27 11 9 12 14 13 13 9 25 42 55 39 44 38 46 41 38 38 35 32 32 27 25 22 22 21 21 19 19 19 19 20 20 23 26 30 33 36
65 71 78 85 94 89 67 53 45 28 16 17 18 17 20 9 10 31 54 51 50 43 19 45 38 34 34 33 31 30 26 24 22 20 19 17 18 19 19 19 20 23 27 31 34 37 38
64 70 77 84 91 82 59 42 42 35 26 24 22 22 12 5 18 37 62 42 38 27 23 32 32 34 34 32 32 30 26 25 23 21 19 18 18 18 20 21 24 26 29 31 38 42 44
63 68 74 81 87 77 52 42 41 39 32 28 21 9 7 12 22 43 48 32 16 28 29 25 32 34 34 30 30 30 26 24 22 20 18 19 19 19 21 23 26 27 30 36 40 42 48
61 65 72 79 84 76 48 40 41 37 29 23 21 9 8 12 22 51 39 21 24 31 28 22 21 31 31 28 27 28 26 24 21 19 21 20 20 22 22 24 28 32 33 36 40 45 47
58 62 69 76 82 74 43 42 41 38 34 19 14 18 7 29 52 40 24 21 29 34 26 25 25 25 27 26 25 25 23 22 22 22 20 20 22 20 22 27 29 31 33 36 38 40 42
55 59 66 73 79 68 41 42 42 41 35 20 14 10 22 43 42 32 25 24 33 31 29 17 27 26 29 27 25 25 25 23 21 20 21 22 20 19 22 27 30 30 29 32 37 35 42
53 56 62 69 75 65 45 49 48 38 37 28 19 15 42 41 34 24 23 28 33 31 19 19 28 26 25 27 28 26 23 22 21 20 19 17 17 19 25 27 25 26 28 29 34 35 30
49 52 57 64 69 62 45 50 45 38 33 31 25 34 43 33 29 29 25 26 23 21 17 14 25 26 25 25 25 25 24 21 19 16 16 17 16 22 20 21 22 18 21 25 30 29 35
46 47 52 58 63 57 40 48 45 30 23 34 36 36 26 31 27 25 24 23 21 12 12 10 16 23 23 22 21 20 18 17 15 15 15 14 18 16 16 17 17 19 21 22 23 26 36
43 43 47 52 57 52 39 41 43 29 26 40 36 23 23 17 22 22 22 17 12 7 8 8 11 19 22 20 17 16 14 14 13 11 12 15 12 12 11 7 10 16 18 16 17 23 28
39 40 42 45 49 49 34 28 35 19 26 20 15 13 13 15 20 19 14 11 8 9 7 4 8 14 17 15 15 14 14 12 12 12 13 10 10 9 7 7 7 6 11 15 19 21 28
34 36 37 40 43 44 37 24 25 24 17 19 17 15 12 12 13 15 11 7 6 5 3 2 2 9 15 18 17 15 14 14 13 12 9 8 9 5 6 3 4 5 11 15 16 21 26
30 32 34 36 39 41 37 24 17 14 11 10 7 6 4 7 9 11 10 9 9 10 10 9 7 7 13 17 17 17 17 15 14 11 9 11 10 6 3 2 3 5 9 15 16 21 21
26 27 30 32 34 35 37 27 14 11 8 2 15 13 7 7 11 9 12 13 14 15 13 13 10 9 11 14 16 18 17 15 12 10 11 12 8 5 4 4 2 4 8 12 13 16 18
26 25 27 29 32 31 32 32 23 9 10 7 11 10 17 17 10 11 14 16 16 17 16 12 11 11 11 15 17 19 18 16 13 12 14 11 9 8 6 4 5 6 7 10 13 14 16
24 25 26 26 31 30 29 31 26 19 12 20 17 15 19 18 18 18 20 20 17 16 16 14 14 13 13 14 16 17 18 17 16 14 14 13 12 11 10 8 9 8 7 9 11 13 15
27 25 26 25 30 33 31 30 32 26 19 17 22 27 21 25 22 17 15 17 14 12 15 15 16 16 16 14 14 16 16 17 17 16 17 16 14 12 12 11 10 9 8 8 10 11 12
Wind_Direction
339 343 344 345 343 340 337 333 325 315 308 299 288 281 275 271 263 258 253 249 247 244 243 239 236 235 235 233 233 229 230 230 229 230 231 231 231 232 234 239 240 242 241 241 241 245 249
336 339 338 340 339 337 335 333 328 318 307 299 293 284 274 268 264 258 252 249 245 243 241 239 237 234 234 233 231 233 228 228 228 230 230 231 231 232 232 236 239 240 239 241 243 246 246
334 336 335 336 337 336 334 330 328 322 313 299 290 284 276 264 257 255 250 245 242 240 239 238 236 235 233 236 229 232 229 228 229 230 231 232 231 232 232 235 238 237 238 243 241 240 243
332 335 335 336 336 334 333 330 327 320 314 311 301 289 276 268 255 246 246 241 238 237 236 236 235 234 232 232 230 229 228 227 228 228 231 230 230 231 231 233 235 236 237 242 244 238 239
332 334 334 336 336 335 333 331 327 323 315 298 289 284 278 272 263 243 236 237 231 231 234 234 231 230 226 231 228 229 228 227 225 224 219 226 229 230 231 231 234 235 238 240 242 239 237
334 335 334 336 336 335 333 332 329 321 309 309 302 292 281 271 262 246 226 226 227 224 225 230 229 228 225 225 226 229 228 226 225 226 222 226 230 230 235 237 237 237 236 238 239 242 236
333 335 335 338 336 336 335 332 332 320 321 317 307 296 284 273 259 234 224 215 219 214 222 224 223 225 223 224 223 224 226 225 223 225 225 227 232 229 232 235 236 236 238 238 243 244 243
334 335 336 338 336 336 337 337 332 326 325 319 309 304 299 287 245 220 208 203 210 208 214 221 218 217 218 217 217 219 223 224 224 225 228 227 233 232 230 233 238 242 243 244 241 245 245
336 336 337 339 339 340 338 340 334 329 330 325 337 353 26 2 261 207 195 184 189 193 195 212 216 214 213 213 212 214 219 218 220 220 222 224 228 230 233 236 238 242 244 244 244 245 247
337 338 340 341 341 341 340 345 337 334 336 353 19 35 18 346 335 199 186 175 170 178 195 203 207 210 210 209 209 211 214 215 217 218 219 221 226 230 231 235 237 238 241 245 249 248 249
340 340 341 342 343 343 344 344 344 340 350 337 3 323 311 319 310 197 177 171 164 186 193 199 203 209 209 204 205 210 211 210 214 214 215 215 218 222 222 223 230 236 242 250 256 261 261
341 342 342 344 346 345 347 350 356 2 19 7 333 323 311 292 284 184 171 165 160 177 191 204 207 205 207 206 204 207 207 208 206 208 206 202 200 206 213 220 233 244 252 260 265 268 269
343 343 345 347 348 348 351 1 12 17 19 8 353 345 325 294 211 168 168 162 163 159 174 190 195 199 207 202 200 203 201 202 201 201 200 198 199 208 219 232 246 253 261 267 268 269 273
345 344 348 349 351 351 355 2 2 5 5 347 337 339 339 137 150 165 160 147 153 154 156 185 199 197 201 197 195 202 199 197 195 199 198 206 206 217 232 241 249 258 264 273 277 278 280
345 345 350 352 353 352 357 3 1 355 353 351 349 31 40 123 145 168 163 138 122 162 164 174 186 191 195 194 197 199 196 199 199 204 209 218 222 232 242 251 258 261 271 274 281 284 285
345 347 351 354 356 353 358 2 358 358 8 23 21 54 101 129 149 134 124 98 137 163 173 169 180 188 187 191 193 198 198 199 203 210 220 222 234 241 247 258 264 271 279 283 285 285 288
345 349 353 356 357 356 2 3 2 3 10 5 10 10 124 137 136 126 94 95 148 160 159 164 159 173 182 191 190 194 197 201 207 214 224 230 240 249 262 267 273 275 283 286 287 291 295
345 350 356 358 359 1 2 5 3 3 10 30 12 28 139 137 126 86 99 114 155 164 169 166 163 162 173 183 182 189 194 199 206 214 225 236 251 266 264 268 276 288 287 292 291 294 294
346 352 358 0 2 3 3 357 359 10 25 37 70 119 138 131 114 100 124 137 156 159 160 169 162 166 168 177 190 194 196 202 212 224 239 253 257 263 269 278 283 290 294 297 298 297 310
347 353 359 2 4 8 8 5 8 13 33 58 90 120 133 123 114 116 115 126 143 155 174 194 175 168 170 177 187 195 200 209 220 229 234 242 255 265 275 281 281 281 286 296 300 316 314
348 353 359 3 5 10 11 13 16 30 50 89 111 114 125 127 122 130 133 140 150 144 187 183 182 175 182 184 186 188 193 200 208 217 234 248 262 269 281 283 301 302 307 314 318 323 320
347 351 358 4 6 12 14 20 21 68 104 109 115 108 113 107 128 134 139 135 136 152 159 187 198 199 193 190 190 200 202 198 212 232 252 259 260 281 280 282 296 319 329 335 338 339 337
346 348 356 2 4 13 12 16 22 86 109 106 113 107 109 126 142 145 137 133 140 147 144 160 210 215 213 205 199 194 200 217 230 248 257 257 283 275 270 275 311 352 10 10 8 2 357
343 345 352 358 2 9 13 11 11 30 130 103 95 103 118 127 141 153 150 161 165 218 231 245 276 219 219 218 217 217 222 228 238 256 256 267 266 254 246 250 334 353 20 15 14 12 3
336 341 348 355 359 2 11 9 14 29 34 186 153 121 87 184 196 200 203 206 220 234 248 264 280 239 215 214 215 220 224 231 239 254 254 269 249 213 216 270 336 4 22 29 29 15 18
326 336 343 351 353 357 1 14 343 351 23 75 210 240 256 217 216 227 223 220 232 237 251 258 260 244 202 205 208 216 222 227 242 254 249 253 240 214 228 212 293 2 10 21 19 8 20
318 330 335 344 346 350 352 360 4 320 281 305 252 247 248 258 247 246 245 251 253 254 250 246 236 220 208 204 207 213 219 227 242 246 251 234 239 252 247 240 270 302 329 1 4 4 3
312 320 326 336 336 340 344 346 350 345 315 267 266 265 250 239 238 253 247 253 263 253 236 220 212 217 214 212 213 220 225 230 240 248 250 237 241 246 247 266 284 294 311 342 353 353 354
309 312 319 331 330 329 334 334 336 338 320 318 275 255 256 236 231 240 244 240 230 227 226 219 212 214 214 217 217 221 228 236 238 251 249 249 249 249 249 268 286 294 304 333 344 348 347